Showing default

GLOBALSTAR M086, 38045

Orbit data source: Space-Track

GLOBALSTAR M086, 38045 is a payload satellite owned by Globalstar (US) in LEO that was launched on Wed, 28 Dec 2011 UTC via a SOYUZ-2-1A launch vehicle from the Tyuratam Missile And Space Complex (TTMTR). Payload-class satellites include a variety of spacecraft equipped with specific instruments for various scientific and technological missions. These include communications satellites like Starlink; space stations such as the ISS; scientific satellites like the Hubble; Earth observation satellites from companies like Planet Labs, Umbra, and HawkEye 360; GPS; miniature CubeSats for education and research; and military/defense satellites.

Loading next visibility...
Identifier
38045, 2011-080F
Orbit
LEO
Country
Flag of UnknownUnknown / GLOB
Related business
Manufacturer
Thales Alenia
Mission
Operational Commercial Communications
Bus & Motor
PRISMA?, LS-400 AOCS?
Mass
715 kg wet, ~500 kg dry
Launch date (UTC)
2011-12-28 (14 years ago)
Launch vehicle
SOYUZ-2-1A
Launch site
Tyuratam Missile And Space Complex (TTMTR)
Object type
Payload
Rocket body
Debris
Shape & HBR
Trap Cyl + 2 Pan, 6.0 m
Radar Cross Section
20.931 m², Large (>1 m²)

Expand to show TLE details & history
Last TLE update: 1 day ago

TLE from 1 day ago
0 GLOBALSTAR M086
1 38045U 11080F   25260.68336834 -.00000085  00000-0  10556-3 0  9990
2 38045  51.9891  78.2162 0001392 135.0770 318.7170 12.62277017635241
Epoch: 2025-09-17T16:24Z
TLE epoch observation values (Epoch: 2025-09-17T16:24:03.024Z)
Latitude
51.96697°
Longitude
-68.51642°
Altitude
1,419.035 km
Speed
7.157 km/s
True Right ascension
11h 37m 24s
True Declination
51° 48' 51"
Sunlit
Object was in daylight at epoch
Visualization orbit readout
Latitude
Unknown
Longitude
Unknown
Altitude
Unknown
Speed
Unknown
Apparent Right ascension
Unknown
Apparent Declination
Unknown
Sunlit
N/A
Visualization observer readout
Local Sidereal Time
15:03:59
Azimuth
Unknown
Elevation
Unknown
Doppler factor
Unknown
Orbital elements
Apogee altitude
1,415.039 km
Perigee altitude
1,412.869 km
Semi-major axis
7,792.091 km
Eccentricity
0.00014
Inclination
51.9891°
RAAN
78.2162°
Arg. of periapsis
135.077°
True anomaly
318.70647°
Mean anomaly
318.717°
Eccentric anomaly
318.71174°
Mean motion
3.15546 °/min
Orbital period
114.09 mins
BSTAR
0.00010556
Loading maneuver chart data...
Computing Atmospheric mass density...
Loading historical data...
Loading historical data...
Loading historical data...
Loading historical data...
Loading historical data...
Loading historical data...
Loading historical data...

Documentation

Showing up to 5 results
|